AirNav   ProFlight Series 2 Aviation Headset
 
 784 users online  

NH11 Swain Hill Heliport
Warren, New Hampshire, USA

GOING TO WARREN?


FAA INFORMATION EFFECTIVE 16 JULY 2020

Location

FAA Identifier: NH11
Lat/Long: 43-57-39.6000N 071-53-19.8000W
43-57.660000N 071-53.330000W
43.9610000,-71.8888333
(estimated)
Elevation: 1110 ft. / 338 m
From city: 2 miles N of WARREN, NH
Time zone: UTC -4 (UTC -5 during Standard Time)
Zip code: 03279

Heliport Operations

Heliport use: Private use. Permission required prior to landing
Activation date: 09/2016
Control tower: no
ARTCC: BOSTON CENTER
FSS: BANGOR FLIGHT SERVICE STATION
Attendance: 
Segmented circle: no

Heliport Communications

WX AWOS-3 at 1P1 (12 nm SE): 118.45 (603-536-1698)

Nearby radio navigation aids

VOR radial/distance  VOR name  Freq  Var
LEBr055/22.1LEBANON VOR/DME113.7015W
MPVr123/25.3MONTPELIER VOR/DME110.8016W

 
NDB name  Hdg/Dist  Freq  Var  ID
HANOVER054/19.927615WLAH .-.. .- ....
MAHN217/25.638617WGMA --. -- .-

Heliport Services

Runway Information

Helipad H1

Dimensions: 75 x 75 ft. / 23 x 23 m
Surface: concrete
Latitude: 43-57.660000N
Longitude: 071-53.330000W
Elevation: 1110.0 ft.
Traffic pattern: leftleft

Heliport Ownership and Management from official FAA records

Ownership: Privately-owned
Owner: VICTORIA SAUCIER
220 SWAIN HILL ROAD
WARREN, NH 03279
Phone 781-588-8555
Manager: STACEY BERGER
220 SWAIN HILL ROAD
WARREN, NH 03279
Phone 781-547-1023

Additional Remarks

FOR CD CTC BOSTON ARTCC AT 603-879-6859.

Instrument Procedures

There are no published instrument procedures at NH11.

Some nearby airports with instrument procedures:

5B9 - Dean Memorial Airport (9 nm NW)
KLEB - Lebanon Municipal Airport (27 nm SW)
KHIE - Mount Washington Regional Airport (29 nm NE)
KLCI - Laconia Municipal Airport (31 nm SE)
KMPV - Edward F Knapp State Airport (32 nm NW)
 
Loc | Ops | Rwys | IFR | FBO | Links
Com | Nav | Svcs | Stats | Notes
Aerial photo
No photo
 
Airport distance calculator
Flying to Swain Hill Heliport? Find the distance to fly.

From to NH11

Sunrise and sunset
Times for 03-Aug-2020
 Local
(UTC-4)
 Zulu
(UTC)
Morning civil twilight05:0709:07
Sunrise05:4009:40
Sunset20:0700:07
Evening civil twilight20:4000:40

Current date and time
Zulu (UTC)  03-Aug-2020 12:11:57
Local (UTC-4)  03-Aug-2020 08:11:57
 
METAR
K1P1 
12nm SE 
031155Z AUTO 10SM CLR 25/17 A2986 RMK AO2 T02450174 10245 20196
TAF
KLEB 
27nm SW 
031120Z 0312/0412 20009KT P6SM BKN250 FM031400 26012G20KT P6SM SCT040 BKN250 FM032300 VRB03KT P6SM BKN200
KHIE 
28nm NE 
031120Z 0312/0412 25005KT P6SM SCT040 FM031400 27010G20KT P6SM SCT050 BKN250 FM032300 VRB03KT P6SM BKN150
KMPV 
33nm NW 
031136Z 0312/0412 22012G20KT P6SM BKN045 FM031700 27013KT P6SM OVC050 FM040000 00000KT P6SM FEW070 FM041000 00000KT 4SM -SHRA BR OVC035
NOTAMs
Click for the latest NOTAMs
NOTAMs are issued by the DoD/FAA and will open in a separate window not controlled by AirNav.

 

 
 

Would you like to see your business listed on this page?

 If your business provides an interesting product or service to pilots, flight crews, aircraft, or users of the Swain Hill Heliport, you should consider listing it here.  To start the listing process, click on the button below
 
Add a business
 

Other Pages about Swain Hill Heliport

Update a link
 
Copyright © AirNav, LLC. All rights reserved. Privacy Policy  Contact